Location: Engelmannsreuth
(49.8125°N, 11.6497°E)
Time: 06:13:38
(UTC+00:00)

Meteor 2-2 Rocket - Pass Details

Date: 17 February 2020
Orbit: 852 x 929 km, 81.3° (Epoch: 09 April)

Event Time Altitude Azimuth Distance (km) Brightness Sun altitude
Rises 05:15:37 0° 203° (SSW) 3,558 7.3 -11.2°
Reaches altitude 10° 05:18:08 10° 207° (SSW) 2,624 6.6 -10.8°
Maximum altitude 05:24:04 59° 286° (WNW) 1,066 4.4 -9.8°
Drops below altitude 10° 05:30:03 10° 6° (N) 2,642 6.8 -8.8°
Sets 05:32:35 0° 11° (N) 3,584 7.5 -8.4°
